Location: Arrien
(43.3167°N, 0.1500°W)
Time: 04:30:30
(UTC+00:00)

SL-08 RB Rocket - Pass Details

Date: 15 October 2021
Orbit: 646 x 683 km, 97.8° (Epoch: 02 December)

Event Time Altitude Azimuth Distance (km) Brightness Sun altitude
Rises 18:21:43 0° 155° (SSE) 2,961 6.8 -12.5°
Reaches altitude 10° 18:23:56 10° 152° (SSE) 2,060 6.0 -12.9°
Maximum altitude 18:28:20 58° 74° (ENE) 771 3.7 -13.7°
Drops below altitude 10° 18:32:50 10° 355° (N) 2,098 6.4 -14.5°
Sets 18:35:06 0° 352° (N) 3,022 7.2 -14.9°
